TELKOM 2

Last updated on Jan. 15, 2021, 6:30 a.m. UTC

1 28902U 05046A   21014.84089139 -.00000145  00000-0  00000-0 0  9997
2 28902   0.0159  65.0416 0000557  25.0443 124.1447  1.00271731 55594
UTC
Height (km)
Latitude
Longitude
Inclination
Orbital Period
UTC large
Height (km)
Speed (km/s)
/
Latitude / Longitude
Inclination (degrees)
Orbital Period (minutes)
Azimuth
Elevation
Range (km)
Doppler Factor
iOS Compass Heading
iOS Angle

Next 30 passes for location: Hong Kong

Rise time Rise Azimuth (degrees) Set time Set Azimuth (degrees) Duration Max altitude (degrees)

No matching passes for this satellites